Weather Roundup
Issued by NWS Chicago, IL

Home | Current Version | Previous Version | Graphics & Text | Print | Product List | Glossary On
Versions: 1 2 3 4 5 6 7 8 9 10 11 12 13 14 15 16 17 18 19 20 21 22 23 24 25 26 27 28 29 30 31 32 33 34 35 36 37 38 39 40 41 42 43 44 45 46 47 48 49 50
000
NZUS59 KLOT 280221
HRRLOT

CHICAGO AREA WEATHER ROUNDUP
NATIONAL WEATHER SERVICE CHICAGO/ROMEOVILLE IL
900 PM CDT MON JUL 27 2015

NOTE: "FAIR" INDICATES FEW OR NO CLOUDS BELOW 12,000 FEET WITH NO
SIGNIFICANT WEATHER AND/OR OBSTRUCTIONS TO VISIBILITY.

* THESE STATIONS ARE NOT UNDER NWS QUALITY CONTROL. THEY ALSO MAY NOT
  REPORT WEATHER SUCH AS PRECIPITATION OR FOG.

ILZ005-006-012>014-019>023-280300-
NORTHEAST ILLINOIS

CITY           SKY/WX    TMP DP  RH WIND       PRES   REMARKS
OHARE          MOCLDY    77  64  64 NE7       30.00R
MIDWAY         MOCLDY    81  62  52 E10       29.99R HX  82
AURORA         CLOUDY    76  63  64 CALM      29.99S
LANSING*       MOCLDY    75  63  65 NE5       30.00R
JOLIET*        CLOUDY    78  65  65 E6        29.99S HX  80
WAUKEGAN       MOCLDY    70  64  81 NE5       30.00S
DUPAGE AIRPORT MOCLDY    77  62  59 E9        29.99S
WHEELING       MOCLDY    75  64  68 CALM      30.02R
KANKAKEE*      CLOUDY    75  69  80 NE3       30.00R
MORRIS*        CLOUDY    77  65  67 CALM      29.98R
LEWIS AIRPORT* CLOUDY    76  62  60 E7        29.99S
NORTHERLY IS     N/A     74  68  81 MISG        N/A
$$

WIZ051-052-058>065-066-070>072-280300-
SOUTHEAST WISCONSIN

CITY           SKY/WX    TMP DP  RH WIND       PRES   REMARKS
MILWAUKEE      MOCLDY    73  66  78 NE3       30.01S
KENOSHA*       MOCLDY    69  62  78 E5        30.01S
RACINE*        MOCLDY    73  66  78 CALM      30.02S
BURLINGTON     MOCLDY    69  63  80 E3        30.01R
WEST BEND      PTCLDY    70  63  78 CALM      30.02S
$$

INZ001>003-010>013-019-020-280300-
NORTHWEST INDIANA

CITY           SKY/WX    TMP DP  RH WIND       PRES   REMARKS
GARY*          MOCLDY    75  70  83 E8        30.01R
MICHIGAN CITY* NOT AVBL
RENSSELAER*    NOT AVBL
VALPARAISO     MOCLDY    73  67  81 CALM      30.01R
$$

LMZ740>746-280300-
SOUTHERN LAKE MICHIGAN

STATION/POSITION TIME  SKY/WX   TEMP WIND        PRES    VSBY
                                AIR  DIR/SP/G
                 (UTC)          (F)  (DEG/KT/KT) (MB)    (MI)
HARRISON CRIB    0200            75   50/ 11/ 12   N/A
BURNHAM HARBOR   0200            74   10/  4/  7   N/A
CALUMET HARBOR   0200            75   40/  3/  5   N/A
BURNS HARBOR     0100            74   60/  8/  8 1015.9S
MICHIGAN CITY    0200            74   30/  8/  9   N/A
$$

ABBREVIATIONS USED IN REMARKS
   TC - TEMPERATURE IN CELSIUS
  WCI - WIND CHILL INDEX
   HX - HEAT INDEX
  VSB - VISIBILITY
$$


USA.gov is the U.S. government's official web portal to all federal, state and local government web resources and services.